World > North America > United States > Florida

Jacksonville, Florida Regional Weather

Lat: 30.33N, Lon: 81.66W
Wx Zone: FLZ025
Feedback

Jacksonville, FL Regional Weather

Expires:201908211000;;975669
ASUS42 KTBW 210919
RWRFL 
FLORIDA REGIONAL WEATHER ROUNDUP
NATIONAL WEATHER SERVICE TAMPA BAY RUSKIN FL
500 AM EDT WED AUG 21 2019

NOTE: "FAIR" INDICATES FEW OR NO CLOUDS BELOW 12,000 FEET WITH NO
SIGNIFICANT WEATHER AND/OR OBSTRUCTIONS TO VISIBILITY.


FLZ011-016>038-118-127-128-134-139-239-211000-
NORTH FLORIDA
  
CITY           SKY/WX    TMP DP  RH WIND       PRES   REMARKS
MARIANNA       FAIR      75  74  96 CALM      30.05F                  
TALLAHASSEE    FAIR      77  76  96 NE5       30.06F                  
PERRY          FAIR      74  74  97 CALM      30.08S                  
LIVE OAK       CLEAR     73  73 100 CALM      30.08S                  
CROSS CITY     FAIR      75  74  96 CALM      30.06F                  
LAKE CITY      FAIR      72  70  94 CALM      30.08S                  
GAINESVILLE    FAIR      72  70  93 CALM      30.10S                  
WILLISTON      FAIR      73  72  99 CALM      30.08S                  
PALATKA        FAIR      70  70 100 CALM      30.09S                  
MAYPORT NAS    FAIR      77  75  93 S3        30.08S                  
JACKSONVILLE   MOCLDY    74  73  97 CALM      30.07S                  
JAX NAS        MOCLDY    80  75  84 CALM      30.08F                  
JAX CECIL      FAIR      72  70  94 CALM      30.07F FOG              
FERNANDINA BEA FAIR      75  75  99 MISG      30.08S                  
ST AUGUSTINE   FAIR      75  74  96 CALM      30.09S                  
PALM COAST     FAIR      74  73  97 CALM      30.08S                  

STATION/POSITION SKY/WX   TEMP    WIND        PRES    WAVE   SWELL
                          AIR SEA DIR/SP/G            HT/PER HT/PER
                          (F)     (DEG/KT/KT) (MB)    (FT/S) (FT/S)
SHELL POINT      NOT AVBL
KEATON BEACH               76      40/  3/  4 1018.2F
CEDAR KEY                  79     120/  6/  7 1018.3F
FERNANDINA                 82 83              1019.3F
30.7N   81.3W                 82                N/A     2/ 8
MAYPORT                    78 83  200/  2/  3 1019.1S
31.4N   80.9W              81 82  250/  6/  8 1018.6F   1/ 8   2/ 8
ST AUGUSTINE               78 82  190/  4/  4 1018.7F

$$

SKY/WX - Weather  TMP - Temperature  DP - Dew Point  RH - Relative Humidity
WIND - Wind Direction/Speed PRES - Barometric Pressure VSB - Visibility
WCI - Wind Chill Index E13G22 Wind - East Wind 13 mph/Gusts of 22 mph